Weather History for KHLC - September, 2011

Change the Weather History Date:

Monday, September 19, 2011

  Actual Average Record
Temperature  
Mean Temperature 67 °F 66 °F  
Max Temperature 87 °F 80 °F 101 °F (1980)
Min Temperature 46 °F 52 °F 33 °F (2003)
Cooling Degree Days 2    
Growing Degree Days 16 (Base 50)    
Moisture  
Dew Point 45 °F    
Average Humidity 32    
Maximum Humidity 60    
Minimum Humidity 22    
Precipitation  
Precipitation 0.00 in 0.07 in 0.68 in (1996)
Month to date precipitation 0.69 1.25  
Year to date precipitation 16.77 19.13  
Sea Level Pressure  
Sea Level Pressure 30.03 in    
Wind  
Wind Speed 7 mph (SW)    
Max Wind Speed 17 mph    
Max Gust Speed 31 mph    
Visibility 9 miles    
Events Rain    
T = Trace of Precipitation, MM = Missing Value Source: NWS Daily Summary

Daily Weather History Graph

Daily Weather History Graph

Search for Another Location

Airport or City:

Trip Planner

Search our weather history database for the weather conditions in past years. The results will help you decide how hot, cold, wet, or windy it might be!

Date:

Astronomy

Sep. 19, 2011 Rise Set
Actual Time 7:23 AM CDT 7:41 PM CDT
Civil Twilight 6:57 AM CDT 8:08 PM CDT
Nautical Twilight 6:25 AM CDT 8:39 PM CDT
Astronomical Twilight 5:53 AM CDT 9:11 PM CDT
Moon 11:52 PM CDT (9/19) 2:13 PM CDT (9/19)
Length of Visible Light 13h 11m
Length of Day
12h 17m
Waning Gibbous, 58% of the Moon is Illuminated
Sep 19
Waning Gibbous
Sep 20
Last Quarter
Sep 27
New
Oct 3
First Quarter
Oct 11
Full

Hourly Weather History & Observations

Time (CDT) Temp. Dew Point Humidity Pressure Visibility Wind Dir Wind Speed Gust Speed Precip Events Conditions
12:53 AM 51.1 °F - N/A% 30.10 in 10.0 mi West 4.6 mph - N/A   Clear
1:53 AM 48.9 °F - N/A% 30.11 in 10.0 mi Calm Calm - N/A   Clear
3:53 AM 48.0 °F - N/A% 30.11 in 8.0 mi West 4.6 mph - N/A   Clear
4:53 AM 46.9 °F - N/A% 30.13 in 8.0 mi West 4.6 mph - N/A   Clear
7:53 AM 46.9 °F - N/A% 30.17 in 6.0 mi Calm Calm - N/A   Haze
8:53 AM 54.0 °F - N/A% 30.17 in 6.0 mi West 5.8 mph - N/A   Haze
9:53 AM 63.0 °F 48.9 °F 60% 30.15 in 6.0 mi West 4.6 mph - N/A   Haze
10:53 AM 73.0 °F 48.9 °F 42% 30.14 in 9.0 mi WSW 5.8 mph - N/A   Clear
11:53 AM 80.1 °F 42.1 °F 26% 30.11 in 10.0 mi SW 13.8 mph - N/A   Clear
12:53 PM 84.0 °F 43.0 °F 24% 30.08 in 10.0 mi SW 11.5 mph 20.7 mph 0.00 in Rain Light Rain
1:53 PM 84.0 °F 42.1 °F 23% 30.05 in 10.0 mi South 17.3 mph - 0.00 in   Clear
2:53 PM 86.0 °F 44.1 °F 23% 30.01 in 10.0 mi SSW 16.1 mph 24.2 mph N/A   Clear
3:53 PM 86.0 °F 45.0 °F 24% 29.97 in 10.0 mi South 17.3 mph 31.1 mph N/A   Clear
4:53 PM 87.1 °F 44.1 °F 22% 29.95 in 10.0 mi SSW 12.7 mph 24.2 mph N/A   Clear
5:53 PM 86.0 °F 44.1 °F 23% 29.94 in 10.0 mi SSW 11.5 mph - N/A   Clear
6:53 PM 84.0 °F 45.0 °F 25% 29.92 in 10.0 mi SSW 6.9 mph - N/A   Clear
7:53 PM 77.0 °F 46.0 °F 33% 29.92 in 10.0 mi South 6.9 mph - N/A   Clear
8:53 PM 73.0 °F 46.0 °F 38% 29.92 in 10.0 mi South 4.6 mph - N/A   Clear
9:53 PM 73.0 °F 44.1 °F 35% 29.92 in 10.0 mi South 15.0 mph - N/A   Clear
10:53 PM 70.0 °F 43.0 °F 38% 29.90 in 10.0 mi South 13.8 mph 20.7 mph N/A   Clear
11:53 PM 70.0 °F 43.0 °F 38% 29.89 in 10.0 mi South 15.0 mph 25.3 mph N/A   Clear